Darstellungsparameter: Aktuell verwendete Einstellungen:
Skalierung der Graphiken ... ?
xyx+y,   Skalierungsfaktor:      Skalierung: Modus: x, Faktor: 1
Darstellungszeitraum ... ?
Vom - - bis: - -   Zeitraum: 17.01.2021 - 18.01.2021
Min/Max/Avg-Anzeige ... ?
Zeige MMA aktuell
Zeige MMA Monat
Zeige MMA alles
Zeige --A aktuell
Zeige --A Monat
Zeige --A alles
Keine MMA-Anzeige
MMA:
Average (ber die Originaldaten)
MMA-Basis: 17.01.2021 - 18.01.2021
Quicknavigation für Darstellung... ?
Tage:      1T, 2T, 3T, 5T -1T -2T -3T -5T +1T +2T +3T +5T
Wochen: 1W, 2W, 3W -1W -2W -3W +1W +2W +3W
Monate: 1M, 3M, 6M -1M -3M -6M +1M +3M +6M
Jahre:    1J, 3J, 5J, 10J -1J -3J -5J -10J +1J +3J +5J +10J
Nutze für die Darstellung ... ?
Originaldaten oder Mittelwerte auf ...
Stundenbasis Tagesbasis Wochenbasis
Monatsbasis Jahresbasis      Datenbasis: Original-Daten
Darstellen als:
Statistik (Auto) Statistik J:M      Darstellung:
Zur Graphik,    zurück zur Übersicht aller Sensoren.
 
Tabellarische Datenbersicht: ?
 
Sensor: Nr:Datum:Temp:Abs-Feuchte:Windchill:Wind:
Aussen-T/F 1 17-01-2021 00:00:00 -0.7 C 4.34 g/m*3 -0.7 C 0 km/h
2 17-01-2021 00:05:00 -0.7 C 4.34 g/m*3 -0.7 C 0 km/h
3 17-01-2021 00:10:00 -0.8 C 4.31 g/m*3 -0.8 C 0 km/h
4 17-01-2021 00:15:00 -0.8 C 4.31 g/m*3 -0.8 C 0 km/h
5 17-01-2021 00:20:00 -0.8 C 4.31 g/m*3 -0.8 C 0 km/h
6 17-01-2021 00:25:00 -0.8 C 4.31 g/m*3 -0.8 C 0 km/h
7 17-01-2021 00:30:00 -0.8 C 4.31 g/m*3 -0.8 C 0 km/h
8 17-01-2021 00:35:00 -0.8 C 4.31 g/m*3 -0.8 C 0 km/h
9 17-01-2021 00:40:00 -0.8 C 4.31 g/m*3 -0.8 C 0 km/h
10 17-01-2021 00:45:00 -0.8 C 4.31 g/m*3 -0.8 C 0 km/h
11 17-01-2021 00:50:00 -0.8 C 4.31 g/m*3 -0.8 C 0 km/h
12 17-01-2021 00:55:00 -0.8 C 4.31 g/m*3 -0.8 C 0 km/h
13 17-01-2021 01:00:00 -0.9 C 4.28 g/m*3 -0.9 C 0 km/h
14 17-01-2021 01:05:00 -0.9 C 4.28 g/m*3 -0.9 C 0 km/h
15 17-01-2021 01:10:00 -0.9 C 4.28 g/m*3 -0.9 C 0 km/h
16 17-01-2021 01:15:00 -0.9 C 4.28 g/m*3 -0.9 C 0 km/h
17 17-01-2021 01:20:00 -0.9 C 4.28 g/m*3 -0.9 C 0 km/h
18 17-01-2021 01:25:00 -0.9 C 4.28 g/m*3 -0.9 C 0 km/h
19 17-01-2021 01:30:00 -0.9 C 4.28 g/m*3 -0.9 C 0 km/h
20 17-01-2021 01:35:00 -1 C 4.25 g/m*3 -1 C 0 km/h
21 17-01-2021 01:40:00 -1.1 C 4.22 g/m*3 -1.1 C 0 km/h
22 17-01-2021 01:45:00 -1.1 C 4.22 g/m*3 -1.1 C 0 km/h
23 17-01-2021 01:50:00 -1.1 C 4.22 g/m*3 -1.1 C 0 km/h
24 17-01-2021 01:55:00 -1.1 C 4.22 g/m*3 -1.1 C 0 km/h
25 17-01-2021 02:00:00 -1.1 C 4.22 g/m*3 -1.1 C 0 km/h
Sensor: Nr:Datum:Temp:Abs-Feuchte:Windchill:Wind:
Aussen-T/F 26 17-01-2021 02:05:00 -1.1 C 4.22 g/m*3 -1.1 C 0 km/h
27 17-01-2021 02:10:00 -1.1 C 4.22 g/m*3 -1.1 C 0 km/h
28 17-01-2021 02:15:00 -1.2 C 4.19 g/m*3 -1.2 C 0 km/h
29 17-01-2021 02:20:00 -1.2 C 4.19 g/m*3 -1.2 C 0 km/h
30 17-01-2021 02:25:00 -1.1 C 4.22 g/m*3 -1.1 C 0 km/h
31 17-01-2021 02:30:00 -1.2 C 4.19 g/m*3 -1.2 C 0 km/h
32 17-01-2021 02:35:00 -1.2 C 4.19 g/m*3 -1.2 C 0 km/h
33 17-01-2021 02:40:00 -1.2 C 4.19 g/m*3 -1.2 C 0 km/h
34 17-01-2021 02:45:00 -1.2 C 4.19 g/m*3 -1.2 C 0 km/h
35 17-01-2021 02:50:00 -1.2 C 4.19 g/m*3 -1.2 C 0 km/h
36 17-01-2021 02:55:00 -1.2 C 4.19 g/m*3 -1.2 C 0 km/h
37 17-01-2021 03:00:00 -1.2 C 4.19 g/m*3 -1.2 C 0 km/h
38 17-01-2021 03:05:00 -1.2 C 4.19 g/m*3 -1.2 C 0 km/h
39 17-01-2021 03:10:00 -1.2 C 4.19 g/m*3 -1.2 C 0 km/h
40 17-01-2021 03:15:00 -1.2 C 4.19 g/m*3 -1.2 C 0 km/h
41 17-01-2021 03:20:00 -1.2 C 4.19 g/m*3 -1.2 C 0 km/h
42 17-01-2021 03:25:00 -1.2 C 4.19 g/m*3 -1.2 C 0 km/h
43 17-01-2021 03:30:00 -1.2 C 4.19 g/m*3 -1.2 C 0 km/h
44 17-01-2021 03:35:00 -1.2 C 4.19 g/m*3 -1.2 C 0 km/h
45 17-01-2021 03:40:00 -1.2 C 4.19 g/m*3 -1.2 C 0 km/h
46 17-01-2021 03:45:00 -1.2 C 4.19 g/m*3 -1.2 C 0 km/h
47 17-01-2021 03:50:00 -1.2 C 4.19 g/m*3 -1.2 C 0 km/h
48 17-01-2021 03:55:00 -1.2 C 4.19 g/m*3 -1.2 C 0 km/h
49 17-01-2021 04:00:00 -1.2 C 4.19 g/m*3 -1.2 C 0 km/h
50 17-01-2021 04:05:00 -1.2 C 4.24 g/m*3 -1.2 C 0 km/h
Sensor: Nr:Datum:Temp:Abs-Feuchte:Windchill:Wind:
Aussen-T/F 51 17-01-2021 04:10:00 -1.2 C 4.24 g/m*3 -1.2 C 0 km/h
52 17-01-2021 04:15:00 -1.2 C 4.24 g/m*3 -1.2 C 0 km/h
53 17-01-2021 04:20:00 -1.2 C 4.24 g/m*3 -1.2 C 0 km/h
54 17-01-2021 04:25:00 -1.2 C 4.24 g/m*3 -1.2 C 0 km/h
55 17-01-2021 04:30:00 -1.2 C 4.24 g/m*3 -1.2 C 0 km/h
56 17-01-2021 04:35:00 -1.2 C 4.24 g/m*3 -1.2 C 0 km/h
57 17-01-2021 04:40:00 -1.1 C 4.26 g/m*3 -1.1 C 0 km/h
58 17-01-2021 04:45:00 -1.1 C 4.26 g/m*3 -1.1 C 0 km/h
59 17-01-2021 04:50:00 -1.1 C 4.26 g/m*3 -1.1 C 0 km/h
60 17-01-2021 04:55:00 -1.1 C 4.26 g/m*3 -1.1 C 0 km/h
61 17-01-2021 05:00:00 -1.1 C 4.26 g/m*3 -1.1 C 0 km/h
62 17-01-2021 05:05:00 -1.1 C 4.26 g/m*3 -1.1 C 0 km/h
63 17-01-2021 05:10:00 -1.1 C 4.26 g/m*3 -1.1 C 0 km/h
64 17-01-2021 05:15:00 -1.1 C 4.26 g/m*3 -1.1 C 0 km/h
65 17-01-2021 05:20:00 -1.1 C 4.26 g/m*3 -1.1 C 0 km/h
66 17-01-2021 05:25:00 -1.1 C 4.26 g/m*3 -1.1 C 0 km/h
67 17-01-2021 05:30:00 -1 C 4.29 g/m*3 -1 C 0 km/h
68 17-01-2021 05:35:00 -1 C 4.29 g/m*3 -1 C 0 km/h
69 17-01-2021 05:40:00 -1 C 4.29 g/m*3 -1 C 0 km/h
70 17-01-2021 05:45:00 -1 C 4.29 g/m*3 -1 C 0 km/h
71 17-01-2021 05:50:00 -0.9 C 4.32 g/m*3 -0.9 C 0 km/h
72 17-01-2021 05:55:00 -0.9 C 4.32 g/m*3 -0.9 C 0 km/h
73 17-01-2021 06:00:00 -0.9 C 4.32 g/m*3 -0.9 C 1.6 km/h
74 17-01-2021 06:05:00 -0.9 C 4.32 g/m*3 -0.9 C 0 km/h
75 17-01-2021 06:10:00 -0.9 C 4.32 g/m*3 -0.9 C 0 km/h
Sensor: Nr:Datum:Temp:Abs-Feuchte:Windchill:Wind:
Aussen-T/F 76 17-01-2021 06:15:00 -0.9 C 4.32 g/m*3 -0.9 C 0 km/h
77 17-01-2021 06:20:00 -0.9 C 4.32 g/m*3 -0.9 C 0 km/h
78 17-01-2021 06:25:00 -0.9 C 4.32 g/m*3 -0.9 C 0 km/h
79 17-01-2021 06:30:00 -0.9 C 4.32 g/m*3 -0.9 C 0 km/h
80 17-01-2021 06:35:00 -0.8 C 4.35 g/m*3 -0.8 C 0 km/h
81 17-01-2021 06:40:00 -0.8 C 4.35 g/m*3 -0.8 C 0 km/h
82 17-01-2021 06:45:00 -0.8 C 4.35 g/m*3 -0.8 C 0 km/h
83 17-01-2021 06:50:00 -0.8 C 4.35 g/m*3 -0.8 C 0 km/h
84 17-01-2021 06:55:00 -0.8 C 4.35 g/m*3 -0.8 C 0 km/h
85 17-01-2021 07:00:00 -0.8 C 4.35 g/m*3 -0.8 C 0 km/h
86 17-01-2021 07:05:00 -0.8 C 4.35 g/m*3 -0.8 C 0 km/h
87 17-01-2021 07:10:00 -0.8 C 4.35 g/m*3 -0.8 C 0 km/h
88 17-01-2021 07:15:00 -0.8 C 4.35 g/m*3 -0.8 C 0 km/h
89 17-01-2021 07:20:00 -0.8 C 4.35 g/m*3 -0.8 C 0 km/h
90 17-01-2021 07:25:00 -0.8 C 4.35 g/m*3 -0.8 C 0 km/h
91 17-01-2021 07:30:00 -0.7 C 4.39 g/m*3 -0.7 C 0 km/h
92 17-01-2021 07:35:00 -0.7 C 4.39 g/m*3 -0.7 C 0 km/h
93 17-01-2021 07:40:00 -0.7 C 4.39 g/m*3 -0.7 C 0 km/h
94 17-01-2021 07:45:00 -0.7 C 4.39 g/m*3 -0.7 C 0 km/h
95 17-01-2021 07:50:00 -0.7 C 4.39 g/m*3 -0.7 C 0 km/h
96 17-01-2021 07:55:00 -0.7 C 4.39 g/m*3 -0.7 C 0 km/h
97 17-01-2021 08:00:00 -0.7 C 4.39 g/m*3 -0.7 C 0 km/h
98 17-01-2021 08:05:00 -0.7 C 4.39 g/m*3 -0.7 C 0 km/h
99 17-01-2021 08:10:00 -0.7 C 4.39 g/m*3 -0.7 C 0 km/h
100 17-01-2021 08:15:00 -0.7 C 4.39 g/m*3 -0.7 C 0 km/h
Sensor: Nr:Datum:Temp:Abs-Feuchte:Windchill:Wind:
Aussen-T/F 101 17-01-2021 08:20:00 -0.7 C 4.39 g/m*3 -0.7 C 0 km/h
102 17-01-2021 08:25:00 -0.7 C 4.39 g/m*3 -0.7 C 0 km/h
103 17-01-2021 08:30:00 -0.7 C 4.39 g/m*3 -0.7 C 0 km/h
104 17-01-2021 08:35:00 -0.6 C 4.42 g/m*3 -0.6 C 0 km/h
105 17-01-2021 08:40:00 -0.6 C 4.42 g/m*3 -0.6 C 0 km/h
106 17-01-2021 08:45:00 -0.6 C 4.42 g/m*3 -0.6 C 0 km/h
107 17-01-2021 08:50:00 -0.6 C 4.42 g/m*3 -0.6 C 0 km/h
108 17-01-2021 08:55:00 -0.6 C 4.42 g/m*3 -0.6 C 0 km/h
109 17-01-2021 09:00:00 -0.5 C 4.45 g/m*3 -0.5 C 0 km/h
110 17-01-2021 09:05:00 -0.5 C 4.45 g/m*3 -0.5 C 0 km/h
111 17-01-2021 09:10:00 -0.4 C 4.48 g/m*3 -0.4 C 0 km/h
112 17-01-2021 09:15:00 -0.4 C 4.48 g/m*3 -0.4 C 0 km/h
113 17-01-2021 09:20:00 -0.4 C 4.48 g/m*3 -0.4 C 0 km/h
114 17-01-2021 09:25:00 -0.3 C 4.51 g/m*3 -0.3 C 0 km/h
115 17-01-2021 09:30:00 -0.2 C 4.54 g/m*3 -0.2 C 0 km/h
116 17-01-2021 09:35:00 -0.2 C 4.54 g/m*3 -0.2 C 3.2 km/h
117 17-01-2021 09:40:00 -0.1 C 4.57 g/m*3 -0.1 C 0 km/h
118 17-01-2021 09:45:00 -0.1 C 4.62 g/m*3 -0.1 C 0 km/h
119 17-01-2021 09:50:00 0 C 4.65 g/m*3 0 C 0 km/h
120 17-01-2021 09:55:00 0.1 C 4.63 g/m*3 0.1 C 3.2 km/h
121 17-01-2021 10:00:00 0.1 C 4.63 g/m*3 0.1 C 0 km/h
122 17-01-2021 10:05:00 0.2 C 4.67 g/m*3 0.2 C 0 km/h
123 17-01-2021 10:10:00 0.2 C 4.67 g/m*3 0.2 C 1.6 km/h
124 17-01-2021 10:15:00 0.2 C 4.67 g/m*3 0.2 C 3.2 km/h
125 17-01-2021 10:20:00 0.2 C 4.67 g/m*3 0.2 C 0 km/h
Sensor: Nr:Datum:Temp:Abs-Feuchte:Windchill:Wind:
Aussen-T/F 126 17-01-2021 10:25:00 0.2 C 4.67 g/m*3 0.2 C 0 km/h
127 17-01-2021 10:30:00 0.2 C 4.67 g/m*3 0.2 C 0 km/h
128 17-01-2021 10:35:00 0.2 C 4.67 g/m*3 0.2 C 0 km/h
129 17-01-2021 10:40:00 0.3 C 4.7 g/m*3 0.3 C 0 km/h
130 17-01-2021 10:45:00 0.3 C 4.7 g/m*3 0.3 C 0 km/h
131 17-01-2021 10:50:00 0.3 C 4.7 g/m*3 0.3 C 0 km/h
132 17-01-2021 10:55:00 0.4 C 4.73 g/m*3 0.4 C 0 km/h
133 17-01-2021 11:00:00 0.4 C 4.73 g/m*3 0.4 C 0 km/h
134 17-01-2021 11:05:00 0.5 C 4.76 g/m*3 0.5 C 0 km/h
135 17-01-2021 11:10:00 0.6 C 4.8 g/m*3 0.6 C 0 km/h
136 17-01-2021 11:15:00 0.7 C 4.83 g/m*3 0.7 C 0 km/h
137 17-01-2021 11:20:00 0.7 C 4.83 g/m*3 0.7 C 0 km/h
138 17-01-2021 11:25:00 0.8 C 4.86 g/m*3 0.8 C 0 km/h
139 17-01-2021 11:30:00 0.8 C 4.86 g/m*3 0.8 C 0 km/h
140 17-01-2021 11:35:00 0.8 C 4.86 g/m*3 0.8 C 0 km/h
141 17-01-2021 11:40:00 0.7 C 4.83 g/m*3 0.7 C 0 km/h
142 17-01-2021 11:45:00 0.7 C 4.83 g/m*3 0.7 C 0 km/h
143 17-01-2021 11:50:00 0.7 C 4.83 g/m*3 0.7 C 0 km/h
144 17-01-2021 11:55:00 0.8 C 4.86 g/m*3 0.8 C 0 km/h
145 17-01-2021 12:00:00 0.8 C 4.86 g/m*3 0.8 C 0 km/h
146 17-01-2021 12:05:00 0.9 C 4.9 g/m*3 0.9 C 0 km/h
147 17-01-2021 12:10:00 0.9 C 4.9 g/m*3 0.9 C 0 km/h
148 17-01-2021 12:15:00 1 C 4.93 g/m*3 1 C 0 km/h
149 17-01-2021 12:20:00 1.1 C 4.96 g/m*3 1.1 C 0 km/h
150 17-01-2021 12:25:00 1.1 C 4.96 g/m*3 1.1 C 0 km/h
Sensor: Nr:Datum:Temp:Abs-Feuchte:Windchill:Wind:
Aussen-T/F 151 17-01-2021 12:30:00 1.1 C 4.96 g/m*3 1.1 C 0 km/h
152 17-01-2021 12:35:00 1.2 C 5 g/m*3 1.2 C 0 km/h
153 17-01-2021 12:40:00 1.2 C 5 g/m*3 1.2 C 0 km/h
154 17-01-2021 12:45:00 1.2 C 4.95 g/m*3 1.2 C 0 km/h
155 17-01-2021 12:50:00 1.2 C 4.95 g/m*3 1.2 C 0 km/h
156 17-01-2021 12:55:00 1.2 C 4.95 g/m*3 1.2 C 0 km/h
157 17-01-2021 13:00:00 1.2 C 5 g/m*3 1.2 C 1.6 km/h
158 17-01-2021 13:05:00 1.3 C 4.98 g/m*3 1.3 C 3.2 km/h
159 17-01-2021 13:10:00 1.3 C 4.98 g/m*3 1.3 C 3.2 km/h
160 17-01-2021 13:15:00 1.3 C 4.98 g/m*3 1.3 C 1.6 km/h
161 17-01-2021 13:20:00 1.3 C 5.03 g/m*3 1.3 C 0 km/h
162 17-01-2021 13:25:00 1.4 C 5.01 g/m*3 1.4 C 0 km/h
163 17-01-2021 13:30:00 1.4 C 5.01 g/m*3 1.4 C 0 km/h
164 17-01-2021 13:35:00 1.4 C 5.01 g/m*3 1.4 C 1.6 km/h
165 17-01-2021 13:40:00 1.4 C 5.01 g/m*3 1.4 C 3.2 km/h
166 17-01-2021 13:45:00 1.4 C 5.01 g/m*3 1.4 C 3.2 km/h
167 17-01-2021 13:50:00 1.4 C 5.01 g/m*3 1.4 C 4.8 km/h
168 17-01-2021 13:55:00 1.3 C 4.98 g/m*3 1.3 C 4.8 km/h
169 17-01-2021 14:00:00 1.3 C 5.03 g/m*3 1.3 C 3.2 km/h
170 17-01-2021 14:05:00 1.3 C 5.03 g/m*3 1.3 C 0 km/h
171 17-01-2021 14:10:00 1.4 C 5.07 g/m*3 1.4 C 3.2 km/h
172 17-01-2021 14:15:00 1.4 C 5.07 g/m*3 -0.56 C 6.4 km/h
173 17-01-2021 14:20:00 1.4 C 5.07 g/m*3 1.4 C 4.8 km/h
174 17-01-2021 14:25:00 1.4 C 5.07 g/m*3 -0.56 C 6.4 km/h
175 17-01-2021 14:30:00 1.4 C 5.07 g/m*3 1.4 C 3.2 km/h
Sensor: Nr:Datum:Temp:Abs-Feuchte:Windchill:Wind:
Aussen-T/F 176 17-01-2021 14:35:00 1.4 C 5.07 g/m*3 1.4 C 1.6 km/h
177 17-01-2021 14:40:00 1.4 C 5.07 g/m*3 1.4 C 0 km/h
178 17-01-2021 14:45:00 1.4 C 5.07 g/m*3 1.4 C 0 km/h
179 17-01-2021 14:50:00 1.4 C 5.07 g/m*3 1.4 C 0 km/h
180 17-01-2021 14:55:00 1.5 C 5.1 g/m*3 1.5 C 0 km/h
181 17-01-2021 15:00:00 1.5 C 5.1 g/m*3 1.5 C 0 km/h
182 17-01-2021 15:05:00 1.6 C 5.14 g/m*3 1.6 C 0 km/h
183 17-01-2021 15:10:00 1.6 C 5.14 g/m*3 1.6 C 0 km/h
184 17-01-2021 15:15:00 1.6 C 5.14 g/m*3 1.6 C 0 km/h
185 17-01-2021 15:20:00 1.6 C 5.14 g/m*3 1.6 C 0 km/h
186 17-01-2021 15:25:00 1.7 C 5.17 g/m*3 1.7 C 0 km/h
187 17-01-2021 15:30:00 1.7 C 5.17 g/m*3 1.7 C 0 km/h
188 17-01-2021 15:35:00 1.6 C 5.14 g/m*3 1.6 C 0 km/h
189 17-01-2021 15:40:00 1.6 C 5.14 g/m*3 1.6 C 0 km/h
190 17-01-2021 15:45:00 1.6 C 5.14 g/m*3 1.6 C 1.6 km/h
191 17-01-2021 15:50:00 1.6 C 5.14 g/m*3 1.6 C 0 km/h
192 17-01-2021 15:55:00 1.5 C 5.1 g/m*3 1.5 C 0 km/h
193 17-01-2021 16:00:00 1.5 C 5.1 g/m*3 1.5 C 3.2 km/h
194 17-01-2021 16:05:00 1.5 C 5.1 g/m*3 1.5 C 0 km/h
195 17-01-2021 16:10:00 1.5 C 5.1 g/m*3 1.5 C 0 km/h
196 17-01-2021 16:15:00 1.5 C 5.1 g/m*3 1.5 C 0 km/h
197 17-01-2021 16:20:00 1.5 C 5.1 g/m*3 1.5 C 1.6 km/h
198 17-01-2021 16:25:00 1.5 C 5.1 g/m*3 1.5 C 0 km/h
199 17-01-2021 16:30:00 1.5 C 5.1 g/m*3 1.5 C 0 km/h
200 17-01-2021 16:35:00 1.5 C 5.1 g/m*3 1.5 C 0 km/h
Sensor: Nr:Datum:Temp:Abs-Feuchte:Windchill:Wind:
Aussen-T/F 201 17-01-2021 16:40:00 1.5 C 5.1 g/m*3 1.5 C 0 km/h
202 17-01-2021 16:45:00 1.6 C 5.14 g/m*3 1.6 C 0 km/h
203 17-01-2021 16:50:00 1.5 C 5.1 g/m*3 1.5 C 0 km/h
204 17-01-2021 16:55:00 1.5 C 5.1 g/m*3 1.5 C 0 km/h
205 17-01-2021 17:00:00 1.5 C 5.1 g/m*3 1.5 C 4.8 km/h
206 17-01-2021 17:05:00 1.5 C 5.1 g/m*3 1.5 C 1.6 km/h
207 17-01-2021 17:10:00 1.6 C 5.19 g/m*3 1.6 C 3.2 km/h
208 17-01-2021 17:15:00 1.6 C 5.19 g/m*3 1.6 C 1.6 km/h
209 17-01-2021 17:20:00 1.6 C 5.19 g/m*3 1.6 C 3.2 km/h
210 17-01-2021 17:25:00 1.6 C 5.19 g/m*3 1.6 C 1.6 km/h
211 17-01-2021 17:30:00 1.6 C 5.19 g/m*3 1.6 C 0 km/h
212 17-01-2021 17:35:00 1.6 C 5.19 g/m*3 1.6 C 0 km/h
213 17-01-2021 17:40:00 1.6 C 5.19 g/m*3 1.6 C 0 km/h
214 17-01-2021 17:45:00 1.6 C 5.19 g/m*3 1.6 C 0 km/h
215 17-01-2021 17:50:00 1.6 C 5.19 g/m*3 1.6 C 0 km/h
216 17-01-2021 17:55:00 1.6 C 5.19 g/m*3 1.6 C 1.6 km/h
217 17-01-2021 18:00:00 1.7 C 5.23 g/m*3 1.7 C 1.6 km/h
218 17-01-2021 18:05:00 1.7 C 5.23 g/m*3 1.7 C 3.2 km/h
219 17-01-2021 18:10:00 1.7 C 5.23 g/m*3 1.7 C 0 km/h
220 17-01-2021 18:15:00 1.7 C 5.23 g/m*3 1.7 C 1.6 km/h
221 17-01-2021 18:20:00 1.7 C 5.23 g/m*3 1.7 C 3.2 km/h
222 17-01-2021 18:25:00 1.7 C 5.23 g/m*3 1.7 C 4.8 km/h
223 17-01-2021 18:30:00 1.7 C 5.23 g/m*3 1.7 C 0 km/h
224 17-01-2021 18:35:00 1.6 C 5.19 g/m*3 1.6 C 4.8 km/h
225 17-01-2021 18:40:00 1.6 C 5.19 g/m*3 1.6 C 0 km/h
Sensor: Nr:Datum:Temp:Abs-Feuchte:Windchill:Wind:
Aussen-T/F 226 17-01-2021 18:45:00 1.7 C 5.23 g/m*3 1.7 C 4.8 km/h
227 17-01-2021 18:50:00 1.7 C 5.23 g/m*3 1.7 C 3.2 km/h
228 17-01-2021 18:55:00 1.8 C 5.26 g/m*3 1.8 C 1.6 km/h
229 17-01-2021 19:00:00 1.8 C 5.26 g/m*3 1.8 C 1.6 km/h
230 17-01-2021 19:05:00 1.8 C 5.26 g/m*3 1.8 C 3.2 km/h
231 17-01-2021 19:10:00 1.9 C 5.3 g/m*3 1.9 C 3.2 km/h
232 17-01-2021 19:15:00 1.8 C 5.26 g/m*3 1.8 C 0 km/h
233 17-01-2021 19:20:00 1.8 C 5.26 g/m*3 1.8 C 3.2 km/h
234 17-01-2021 19:25:00 1.8 C 5.26 g/m*3 1.8 C 0 km/h
235 17-01-2021 19:30:00 1.8 C 5.26 g/m*3 1.8 C 3.2 km/h
236 17-01-2021 19:35:00 1.7 C 5.23 g/m*3 1.7 C 3.2 km/h
237 17-01-2021 19:40:00 1.7 C 5.23 g/m*3 1.7 C 1.6 km/h
238 17-01-2021 19:45:00 1.8 C 5.26 g/m*3 -0.1 C 6.4 km/h
239 17-01-2021 19:50:00 1.8 C 5.26 g/m*3 1.8 C 0 km/h
240 17-01-2021 19:55:00 1.9 C 5.3 g/m*3 1.9 C 0 km/h
241 17-01-2021 20:00:00 2 C 5.33 g/m*3 2 C 0 km/h
242 17-01-2021 20:05:00 1.9 C 5.3 g/m*3 1.9 C 4.8 km/h
243 17-01-2021 20:10:00 1.9 C 5.3 g/m*3 1.9 C 3.2 km/h
244 17-01-2021 20:15:00 1.8 C 5.26 g/m*3 1.8 C 3.2 km/h
245 17-01-2021 20:20:00 1.8 C 5.26 g/m*3 1.8 C 4.8 km/h
246 17-01-2021 20:25:00 1.8 C 5.26 g/m*3 1.8 C 3.2 km/h
247 17-01-2021 20:30:00 1.8 C 5.26 g/m*3 1.8 C 3.2 km/h
248 17-01-2021 20:35:00 1.8 C 5.26 g/m*3 1.8 C 3.2 km/h
249 17-01-2021 20:40:00 1.9 C 5.3 g/m*3 1.9 C 1.6 km/h
250 17-01-2021 20:45:00 1.9 C 5.3 g/m*3 1.9 C 3.2 km/h
Sensor: Nr:Datum:Temp:Abs-Feuchte:Windchill:Wind:
Aussen-T/F 251 17-01-2021 20:50:00 1.9 C 5.3 g/m*3 1.9 C 1.6 km/h
252 17-01-2021 20:55:00 1.9 C 5.3 g/m*3 1.9 C 0 km/h
253 17-01-2021 21:00:00 1.9 C 5.3 g/m*3 1.9 C 1.6 km/h
254 17-01-2021 21:05:00 1.9 C 5.3 g/m*3 1.9 C 1.6 km/h
255 17-01-2021 21:10:00 1.9 C 5.3 g/m*3 1.9 C 3.2 km/h
256 17-01-2021 21:15:00 1.9 C 5.3 g/m*3 1.9 C 3.2 km/h
257 17-01-2021 21:20:00 1.9 C 5.3 g/m*3 1.9 C 1.6 km/h
258 17-01-2021 21:25:00 1.9 C 5.3 g/m*3 1.9 C 3.2 km/h
259 17-01-2021 21:30:00 2 C 5.33 g/m*3 2 C 3.2 km/h
260 17-01-2021 21:35:00 2 C 5.33 g/m*3 2 C 4.8 km/h
261 17-01-2021 21:40:00 2 C 5.33 g/m*3 2 C 3.2 km/h
262 17-01-2021 21:45:00 2.1 C 5.37 g/m*3 2.1 C 0 km/h
263 17-01-2021 21:50:00 2 C 5.33 g/m*3 2 C 0 km/h
264 17-01-2021 21:55:00 2 C 5.33 g/m*3 2 C 0 km/h
265 17-01-2021 22:00:00 2 C 5.33 g/m*3 2 C 4.8 km/h
266 17-01-2021 22:05:00 2 C 5.33 g/m*3 2 C 0 km/h
267 17-01-2021 22:10:00 2.1 C 5.43 g/m*3 2.1 C 0 km/h
268 17-01-2021 22:15:00 2.1 C 5.37 g/m*3 2.1 C 1.6 km/h
269 17-01-2021 22:20:00 2.1 C 5.37 g/m*3 2.1 C 4.8 km/h
270 17-01-2021 22:25:00 2.1 C 5.43 g/m*3 2.1 C 1.6 km/h
271 17-01-2021 22:30:00 2.1 C 5.43 g/m*3 2.1 C 0 km/h
272 17-01-2021 22:35:00 2.2 C 5.46 g/m*3 2.2 C 0 km/h
273 17-01-2021 22:40:00 2.2 C 5.46 g/m*3 2.2 C 0 km/h
274 17-01-2021 22:45:00 2.1 C 5.43 g/m*3 2.1 C 0 km/h
275 17-01-2021 22:50:00 2.2 C 5.46 g/m*3 2.2 C 0 km/h
Sensor: Nr:Datum:Temp:Abs-Feuchte:Windchill:Wind:
Aussen-T/F 276 17-01-2021 22:55:00 2.2 C 5.46 g/m*3 2.2 C 0 km/h
277 17-01-2021 23:00:00 2.2 C 5.46 g/m*3 2.2 C 0 km/h
278 17-01-2021 23:05:00 2.2 C 5.46 g/m*3 2.2 C 0 km/h
279 17-01-2021 23:10:00 2.2 C 5.46 g/m*3 2.2 C 0 km/h
280 17-01-2021 23:15:00 2.2 C 5.46 g/m*3 2.2 C 0 km/h
281 17-01-2021 23:20:00 2.2 C 5.46 g/m*3 2.2 C 4.8 km/h
282 17-01-2021 23:25:00 2.3 C 5.5 g/m*3 2.3 C 3.2 km/h
283 17-01-2021 23:30:00 2.3 C 5.5 g/m*3 2.3 C 4.8 km/h
284 17-01-2021 23:35:00 2.3 C 5.5 g/m*3 2.3 C 1.6 km/h
285 17-01-2021 23:40:00 2.3 C 5.5 g/m*3 2.3 C 0 km/h
286 17-01-2021 23:45:00 2.3 C 5.5 g/m*3 2.3 C 4.8 km/h
287 17-01-2021 23:50:00 2.4 C 5.54 g/m*3 2.4 C 0 km/h
288 17-01-2021 23:55:00 2.4 C 5.54 g/m*3 2.4 C 4.8 km/h
289 18-01-2021 00:00:00 2.4 C 5.54 g/m*3 2.4 C 3.2 km/h
290 18-01-2021 00:05:00 2.4 C 5.54 g/m*3 2.4 C 1.6 km/h
291 18-01-2021 00:10:00 2.4 C 5.54 g/m*3 2.4 C 3.2 km/h
292 18-01-2021 00:15:00 2.3 C 5.5 g/m*3 2.3 C 3.2 km/h
293 18-01-2021 00:20:00 2.3 C 5.5 g/m*3 2.3 C 3.2 km/h
294 18-01-2021 00:25:00 2.3 C 5.5 g/m*3 2.3 C 4.8 km/h
295 18-01-2021 00:30:00 2.3 C 5.5 g/m*3 2.3 C 3.2 km/h
296 18-01-2021 00:35:00 2.4 C 5.54 g/m*3 2.4 C 3.2 km/h
297 18-01-2021 00:40:00 2.4 C 5.54 g/m*3 2.4 C 4.8 km/h
298 18-01-2021 00:45:00 2.3 C 5.5 g/m*3 2.3 C 3.2 km/h
299 18-01-2021 00:50:00 2.3 C 5.5 g/m*3 2.3 C 1.6 km/h
300 18-01-2021 00:55:00 2.3 C 5.5 g/m*3 2.3 C 1.6 km/h
Sensor: Nr:Datum:Temp:Abs-Feuchte:Windchill:Wind:
Aussen-T/F 301 18-01-2021 01:00:00 2.3 C 5.5 g/m*3 2.3 C 4.8 km/h
302 18-01-2021 01:05:00 2.3 C 5.5 g/m*3 2.3 C 0 km/h
303 18-01-2021 01:10:00 2.3 C 5.5 g/m*3 2.3 C 3.2 km/h
304 18-01-2021 01:15:00 2.3 C 5.5 g/m*3 2.3 C 3.2 km/h
305 18-01-2021 01:20:00 2.3 C 5.5 g/m*3 2.3 C 4.8 km/h
306 18-01-2021 01:25:00 2.3 C 5.5 g/m*3 2.3 C 4.8 km/h
307 18-01-2021 01:30:00 2.3 C 5.5 g/m*3 2.3 C 4.8 km/h
308 18-01-2021 01:35:00 2.3 C 5.5 g/m*3 2.3 C 3.2 km/h
309 18-01-2021 01:40:00 2.3 C 5.5 g/m*3 2.3 C 1.6 km/h
310 18-01-2021 01:45:00 2.3 C 5.5 g/m*3 2.3 C 0 km/h
311 18-01-2021 01:50:00 2.3 C 5.5 g/m*3 2.3 C 1.6 km/h
312 18-01-2021 01:55:00 2.3 C 5.5 g/m*3 2.3 C 3.2 km/h
313 18-01-2021 02:00:00 2.3 C 5.5 g/m*3 2.3 C 1.6 km/h
314 18-01-2021 02:05:00 2.3 C 5.5 g/m*3 2.3 C 1.6 km/h
315 18-01-2021 02:10:00 2.3 C 5.5 g/m*3 2.3 C 3.2 km/h
316 18-01-2021 02:15:00 2.4 C 5.54 g/m*3 0.59 C 6.4 km/h
317 18-01-2021 02:20:00 2.4 C 5.54 g/m*3 0.59 C 6.4 km/h
318 18-01-2021 02:25:00 2.5 C 5.58 g/m*3 2.5 C 3.2 km/h
319 18-01-2021 02:30:00 2.5 C 5.58 g/m*3 2.5 C 4.8 km/h
320 18-01-2021 02:35:00 2.5 C 5.58 g/m*3 2.5 C 0 km/h
321 18-01-2021 02:40:00 2.5 C 5.58 g/m*3 2.5 C 3.2 km/h
322 18-01-2021 02:45:00 2.5 C 5.58 g/m*3 2.5 C 1.6 km/h
323 18-01-2021 02:50:00 2.5 C 5.58 g/m*3 2.5 C 0 km/h
324 18-01-2021 02:55:00 2.5 C 5.58 g/m*3 2.5 C 1.6 km/h
325 18-01-2021 03:00:00 2.5 C 5.58 g/m*3 2.5 C 4.8 km/h
Sensor: Nr:Datum:Temp:Abs-Feuchte:Windchill:Wind:
Aussen-T/F 326 18-01-2021 03:05:00 2.5 C 5.58 g/m*3 2.5 C 3.2 km/h
327 18-01-2021 03:10:00 2.5 C 5.58 g/m*3 2.5 C 4.8 km/h
328 18-01-2021 03:15:00 2.6 C 5.61 g/m*3 2.6 C 3.2 km/h
329 18-01-2021 03:20:00 2.7 C 5.65 g/m*3 2.7 C 1.6 km/h
330 18-01-2021 03:25:00 2.7 C 5.65 g/m*3 2.7 C 0 km/h
331 18-01-2021 03:30:00 2.7 C 5.65 g/m*3 2.7 C 1.6 km/h
332 18-01-2021 03:35:00 2.7 C 5.65 g/m*3 2.7 C 3.2 km/h
333 18-01-2021 03:40:00 2.6 C 5.61 g/m*3 2.6 C 1.6 km/h
334 18-01-2021 03:45:00 2.6 C 5.61 g/m*3 2.6 C 3.2 km/h
335 18-01-2021 03:50:00 2.5 C 5.58 g/m*3 2.5 C 0 km/h
336 18-01-2021 03:55:00 2.4 C 5.54 g/m*3 2.4 C 3.2 km/h
337 18-01-2021 04:00:00 2.2 C 5.46 g/m*3 2.2 C 1.6 km/h
338 18-01-2021 04:05:00 2.1 C 5.43 g/m*3 2.1 C 0 km/h
339 18-01-2021 04:10:00 2 C 5.39 g/m*3 2 C 3.2 km/h
340 18-01-2021 04:15:00 2 C 5.39 g/m*3 2 C 4.8 km/h
341 18-01-2021 04:20:00 2 C 5.39 g/m*3 2 C 3.2 km/h
342 18-01-2021 04:25:00 1.9 C 5.35 g/m*3 1.9 C 3.2 km/h
343 18-01-2021 04:30:00 1.9 C 5.35 g/m*3 1.9 C 1.6 km/h
344 18-01-2021 04:35:00 2 C 5.39 g/m*3 2 C 3.2 km/h
345 18-01-2021 04:40:00 2 C 5.39 g/m*3 2 C 3.2 km/h
346 18-01-2021 04:45:00 2.1 C 5.43 g/m*3 2.1 C 1.6 km/h
347 18-01-2021 04:50:00 2.1 C 5.43 g/m*3 2.1 C 3.2 km/h
348 18-01-2021 04:55:00 2.2 C 5.46 g/m*3 2.2 C 1.6 km/h
349 18-01-2021 05:00:00 2.2 C 5.46 g/m*3 2.2 C 1.6 km/h
350 18-01-2021 05:05:00 2.2 C 5.46 g/m*3 0.36 C 6.4 km/h
Sensor: Nr:Datum:Temp:Abs-Feuchte:Windchill:Wind:
Aussen-T/F 351 18-01-2021 05:10:00 2.3 C 5.5 g/m*3 2.3 C 1.6 km/h
352 18-01-2021 05:15:00 2.3 C 5.5 g/m*3 2.3 C 0 km/h
353 18-01-2021 05:20:00 2.3 C 5.5 g/m*3 2.3 C 3.2 km/h
354 18-01-2021 05:25:00 2.3 C 5.5 g/m*3 2.3 C 4.8 km/h
355 18-01-2021 05:30:00 2.3 C 5.5 g/m*3 2.3 C 1.6 km/h
356 18-01-2021 05:35:00 2.3 C 5.5 g/m*3 2.3 C 4.8 km/h
357 18-01-2021 05:40:00 2.3 C 5.5 g/m*3 2.3 C 4.8 km/h
358 18-01-2021 05:45:00 2.4 C 5.54 g/m*3 2.4 C 4.8 km/h
359 18-01-2021 05:50:00 2.4 C 5.54 g/m*3 0.59 C 6.4 km/h
360 18-01-2021 05:55:00 2.4 C 5.54 g/m*3 0.05 C 8.1 km/h
361 18-01-2021 06:00:00 2.4 C 5.54 g/m*3 0.05 C 8.1 km/h
362 18-01-2021 06:05:00 2.4 C 5.54 g/m*3 -0.37 C 9.7 km/h
363 18-01-2021 06:10:00 2.4 C 5.54 g/m*3 0.59 C 6.4 km/h
364 18-01-2021 06:15:00 2.4 C 5.54 g/m*3 0.05 C 8.1 km/h
365 18-01-2021 06:20:00 2.4 C 5.54 g/m*3 0.05 C 8.1 km/h
366 18-01-2021 06:25:00 2.5 C 5.58 g/m*3 -0.26 C 9.7 km/h
367 18-01-2021 06:30:00 2.5 C 5.58 g/m*3 0.71 C 6.4 km/h
368 18-01-2021 06:35:00 2.5 C 5.58 g/m*3 0.17 C 8.1 km/h
369 18-01-2021 06:40:00 2.5 C 5.58 g/m*3 0.71 C 6.4 km/h
370 18-01-2021 06:45:00 2.4 C 5.54 g/m*3 -1.07 C 12.9 km/h
371 18-01-2021 06:50:00 2.4 C 5.54 g/m*3 0.59 C 6.4 km/h
372 18-01-2021 06:55:00 2.4 C 5.54 g/m*3 2.4 C 3.2 km/h
373 18-01-2021 07:00:00 2.4 C 5.54 g/m*3 0.59 C 6.4 km/h
374 18-01-2021 07:05:00 2.4 C 5.54 g/m*3 -0.37 C 9.7 km/h
375 18-01-2021 07:10:00 2.4 C 5.54 g/m*3 -0.37 C 9.7 km/h
Sensor: Nr:Datum:Temp:Abs-Feuchte:Windchill:Wind:
Aussen-T/F 376 18-01-2021 07:15:00 2.5 C 5.58 g/m*3 0.17 C 8.1 km/h
377 18-01-2021 07:20:00 2.5 C 5.58 g/m*3 -0.62 C 11.3 km/h
378 18-01-2021 07:25:00 2.5 C 5.58 g/m*3 -0.62 C 11.3 km/h
379 18-01-2021 07:30:00 2.5 C 5.58 g/m*3 -0.26 C 9.7 km/h
380 18-01-2021 07:35:00 2.5 C 5.58 g/m*3 -0.26 C 9.7 km/h
381 18-01-2021 07:40:00 2.5 C 5.52 g/m*3 -0.26 C 9.7 km/h
382 18-01-2021 07:45:00 2.5 C 5.52 g/m*3 0.71 C 6.4 km/h
383 18-01-2021 07:50:00 2.5 C 5.52 g/m*3 -0.62 C 11.3 km/h
384 18-01-2021 07:55:00 2.5 C 5.52 g/m*3 -0.26 C 9.7 km/h
385 18-01-2021 08:00:00 2.5 C 5.52 g/m*3 -0.26 C 9.7 km/h
386 18-01-2021 08:05:00 2.6 C 5.56 g/m*3 -0.83 C 12.9 km/h
387 18-01-2021 08:10:00 2.6 C 5.56 g/m*3 0.82 C 6.4 km/h
388 18-01-2021 08:15:00 2.6 C 5.56 g/m*3 -0.14 C 9.7 km/h
389 18-01-2021 08:20:00 2.6 C 5.56 g/m*3 0.29 C 8.1 km/h
390 18-01-2021 08:25:00 2.6 C 5.56 g/m*3 -0.14 C 9.7 km/h
391 18-01-2021 08:30:00 2.6 C 5.56 g/m*3 -0.5 C 11.3 km/h
392 18-01-2021 08:35:00 2.6 C 5.56 g/m*3 -0.5 C 11.3 km/h
393 18-01-2021 08:40:00 2.6 C 5.5 g/m*3 0.29 C 8.1 km/h
394 18-01-2021 08:45:00 2.6 C 5.5 g/m*3 -0.14 C 9.7 km/h
395 18-01-2021 08:50:00 2.6 C 5.5 g/m*3 0.82 C 6.4 km/h
396 18-01-2021 08:55:00 2.6 C 5.5 g/m*3 -0.14 C 9.7 km/h
397 18-01-2021 09:00:00 2.6 C 5.5 g/m*3 -0.5 C 11.3 km/h
398 18-01-2021 09:05:00 2.6 C 5.5 g/m*3 -0.14 C 9.7 km/h
399 18-01-2021 09:10:00 2.7 C 5.54 g/m*3 -0.02 C 9.7 km/h
400 18-01-2021 09:15:00 2.7 C 5.54 g/m*3 -0.02 C 9.7 km/h
Sensor: Nr:Datum:Temp:Abs-Feuchte:Windchill:Wind:
Aussen-T/F 401 18-01-2021 09:20:00 2.7 C 5.54 g/m*3 -0.02 C 9.7 km/h
402 18-01-2021 09:25:00 2.7 C 5.54 g/m*3 -0.38 C 11.3 km/h
403 18-01-2021 09:30:00 2.8 C 5.57 g/m*3 0.52 C 8.1 km/h
404 18-01-2021 09:35:00 2.9 C 5.61 g/m*3 0.22 C 9.7 km/h
405 18-01-2021 09:40:00 2.9 C 5.61 g/m*3 -0.14 C 11.3 km/h
406 18-01-2021 09:45:00 3.1 C 5.69 g/m*3 -0.51 C 14.5 km/h
407 18-01-2021 09:50:00 3.1 C 5.69 g/m*3 0.46 C 9.7 km/h
408 18-01-2021 09:55:00 3.2 C 5.72 g/m*3 0.58 C 9.7 km/h
409 18-01-2021 10:00:00 3.3 C 5.7 g/m*3 0.02 C 12.9 km/h
410 18-01-2021 10:05:00 3.3 C 5.7 g/m*3 0.7 C 9.7 km/h
411 18-01-2021 10:10:00 3.3 C 5.7 g/m*3 3.3 C 4.8 km/h
412 18-01-2021 10:15:00 3.4 C 5.74 g/m*3 0.46 C 11.3 km/h
413 18-01-2021 10:20:00 3.4 C 5.74 g/m*3 1.23 C 8.1 km/h
414 18-01-2021 10:25:00 3.4 C 5.74 g/m*3 0.82 C 9.7 km/h
415 18-01-2021 10:30:00 3.4 C 5.74 g/m*3 0.14 C 12.9 km/h
416 18-01-2021 10:35:00 3.4 C 5.68 g/m*3 0.82 C 9.7 km/h
417 18-01-2021 10:40:00 3.5 C 5.72 g/m*3 -0.02 C 14.5 km/h
418 18-01-2021 10:45:00 3.6 C 5.76 g/m*3 0.7 C 11.3 km/h
419 18-01-2021 10:50:00 3.6 C 5.76 g/m*3 0.7 C 11.3 km/h
420 18-01-2021 10:55:00 3.7 C 5.8 g/m*3 0.82 C 11.3 km/h
421 18-01-2021 11:00:00 3.7 C 5.8 g/m*3 1.58 C 8.1 km/h
422 18-01-2021 11:05:00 3.8 C 5.83 g/m*3 1.29 C 9.7 km/h
423 18-01-2021 11:10:00 3.9 C 5.87 g/m*3 1.41 C 9.7 km/h
424 18-01-2021 11:15:00 4.1 C 5.95 g/m*3 1 C 12.9 km/h
425 18-01-2021 11:20:00 4.1 C 5.89 g/m*3 1.31 C 11.3 km/h
Sensor: Nr:Datum:Temp:Abs-Feuchte:Windchill:Wind:
Aussen-T/F 426 18-01-2021 11:25:00 4.2 C 5.93 g/m*3 2.17 C 8.1 km/h
427 18-01-2021 11:30:00 4.2 C 5.93 g/m*3 1.43 C 11.3 km/h
428 18-01-2021 11:35:00 4.3 C 5.9 g/m*3 2.29 C 8.1 km/h
429 18-01-2021 11:40:00 4.3 C 5.9 g/m*3 1.89 C 9.7 km/h
430 18-01-2021 11:45:00 4.3 C 5.9 g/m*3 1.55 C 11.3 km/h
431 18-01-2021 11:50:00 4.3 C 5.9 g/m*3 2.29 C 8.1 km/h
432 18-01-2021 11:55:00 4.4 C 5.94 g/m*3 1.67 C 11.3 km/h
433 18-01-2021 12:00:00 4.4 C 5.94 g/m*3 1.67 C 11.3 km/h
434 18-01-2021 12:05:00 4.5 C 5.98 g/m*3 1.48 C 12.9 km/h
435 18-01-2021 12:10:00 4.6 C 5.96 g/m*3 1.91 C 11.3 km/h
436 18-01-2021 12:15:00 4.6 C 5.96 g/m*3 1.91 C 11.3 km/h
437 18-01-2021 12:20:00 4.6 C 5.96 g/m*3 1.09 C 16.1 km/h
438 18-01-2021 12:25:00 4.6 C 5.96 g/m*3 1.34 C 14.5 km/h
439 18-01-2021 12:30:00 4.7 C 6 g/m*3 2.76 C 8.1 km/h
440 18-01-2021 12:35:00 4.8 C 6.04 g/m*3 2.15 C 11.3 km/h
441 18-01-2021 12:40:00 4.9 C 6.01 g/m*3 2.27 C 11.3 km/h
442 18-01-2021 12:45:00 5 C 6.05 g/m*3 1.83 C 14.5 km/h
443 18-01-2021 12:50:00 5.2 C 6.13 g/m*3 2.96 C 9.7 km/h
444 18-01-2021 12:55:00 5.2 C 6.13 g/m*3 2.96 C 9.7 km/h
445 18-01-2021 13:00:00 5.3 C 6.17 g/m*3 2.75 C 11.3 km/h
446 18-01-2021 13:05:00 5.4 C 6.14 g/m*3 3.58 C 8.1 km/h
447 18-01-2021 13:10:00 5.5 C 6.18 g/m*3 2.7 C 12.9 km/h
448 18-01-2021 13:15:00 5.5 C 6.11 g/m*3 2.7 C 12.9 km/h
449 18-01-2021 13:20:00 5.6 C 6.15 g/m*3 2.57 C 14.5 km/h
450 18-01-2021 13:25:00 5.5 C 6.11 g/m*3 2.7 C 12.9 km/h
Sensor: Nr:Datum:Temp:Abs-Feuchte:Windchill:Wind:
Aussen-T/F 451 18-01-2021 13:30:00 5.5 C 6.11 g/m*3 2.44 C 14.5 km/h
452 18-01-2021 13:35:00 5.5 C 6.04 g/m*3 1.99 C 17.7 km/h
453 18-01-2021 13:40:00 5.6 C 6.08 g/m*3 3.11 C 11.3 km/h
454 18-01-2021 13:45:00 5.6 C 6.08 g/m*3 1.91 C 19.3 km/h
455 18-01-2021 13:50:00 5.6 C 6.08 g/m*3 2.33 C 16.1 km/h
456 18-01-2021 13:55:00 5.6 C 6.08 g/m*3 2.57 C 14.5 km/h
457 18-01-2021 14:00:00 5.6 C 6.01 g/m*3 1.72 C 20.9 km/h
458 18-01-2021 14:05:00 5.6 C 6.01 g/m*3 1.72 C 20.9 km/h
459 18-01-2021 14:10:00 5.7 C 6.05 g/m*3 2.95 C 12.9 km/h
460 18-01-2021 14:15:00 5.7 C 6.05 g/m*3 2.95 C 12.9 km/h
461 18-01-2021 14:20:00 5.8 C 6.09 g/m*3 2.81 C 14.5 km/h
462 18-01-2021 14:25:00 5.7 C 6.05 g/m*3 1.85 C 20.9 km/h
463 18-01-2021 14:30:00 5.7 C 5.98 g/m*3 2.69 C 14.5 km/h
464 18-01-2021 14:35:00 5.7 C 5.98 g/m*3 2.24 C 17.7 km/h
465 18-01-2021 14:40:00 5.7 C 5.98 g/m*3 2.03 C 19.3 km/h
466 18-01-2021 14:45:00 5.7 C 5.98 g/m*3 2.03 C 19.3 km/h
467 18-01-2021 14:50:00 5.7 C 5.98 g/m*3 2.24 C 17.7 km/h
468 18-01-2021 14:55:00 5.6 C 5.94 g/m*3 1.54 C 22.5 km/h
469 18-01-2021 15:00:00 5.6 C 5.94 g/m*3 2.57 C 14.5 km/h
470 18-01-2021 15:05:00 5.6 C 5.94 g/m*3 2.33 C 16.1 km/h
471 18-01-2021 15:10:00 5.5 C 5.9 g/m*3 2.44 C 14.5 km/h
472 18-01-2021 15:15:00 5.5 C 5.9 g/m*3 2.44 C 14.5 km/h
473 18-01-2021 15:20:00 5.4 C 5.86 g/m*3 2.32 C 14.5 km/h
474 18-01-2021 15:25:00 5.4 C 5.86 g/m*3 3.2 C 9.7 km/h
475 18-01-2021 15:30:00 5.4 C 5.86 g/m*3 1.86 C 17.7 km/h
Sensor: Nr:Datum:Temp:Abs-Feuchte:Windchill:Wind:
Aussen-T/F 476 18-01-2021 15:35:00 5.3 C 5.82 g/m*3 2.2 C 14.5 km/h
477 18-01-2021 15:40:00 5.3 C 5.82 g/m*3 2.75 C 11.3 km/h
478 18-01-2021 15:45:00 5.3 C 5.82 g/m*3 1.96 C 16.1 km/h
479 18-01-2021 15:50:00 5.3 C 5.82 g/m*3 2.75 C 11.3 km/h
480 18-01-2021 15:55:00 5.4 C 5.86 g/m*3 2.87 C 11.3 km/h
481 18-01-2021 16:00:00 5.3 C 5.82 g/m*3 3.46 C 8.1 km/h
482 18-01-2021 16:05:00 5.3 C 5.82 g/m*3 3.08 C 9.7 km/h
483 18-01-2021 16:10:00 5.2 C 5.78 g/m*3 3.82 C 6.4 km/h
484 18-01-2021 16:15:00 5.2 C 5.78 g/m*3 1.83 C 16.1 km/h
485 18-01-2021 16:20:00 5.1 C 5.75 g/m*3 2.22 C 12.9 km/h
486 18-01-2021 16:25:00 5.1 C 5.75 g/m*3 3.23 C 8.1 km/h
487 18-01-2021 16:30:00 4.9 C 5.67 g/m*3 2.99 C 8.1 km/h
488 18-01-2021 16:35:00 4.8 C 5.7 g/m*3 2.15 C 11.3 km/h
489 18-01-2021 16:40:00 4.8 C 5.7 g/m*3 2.49 C 9.7 km/h
490 18-01-2021 16:45:00 4.8 C 5.7 g/m*3 1.85 C 12.9 km/h
491 18-01-2021 16:50:00 4.8 C 5.7 g/m*3 1.34 C 16.1 km/h
492 18-01-2021 16:55:00 4.7 C 5.66 g/m*3 1.46 C 14.5 km/h
493 18-01-2021 17:00:00 4.7 C 5.66 g/m*3 1.73 C 12.9 km/h
494 18-01-2021 17:05:00 4.7 C 5.73 g/m*3 0.99 C 17.7 km/h
495 18-01-2021 17:10:00 4.7 C 5.73 g/m*3 2.37 C 9.7 km/h
496 18-01-2021 17:15:00 4.6 C 5.69 g/m*3 2.64 C 8.1 km/h
497 18-01-2021 17:20:00 4.6 C 5.69 g/m*3 2.25 C 9.7 km/h
498 18-01-2021 17:25:00 4.5 C 5.65 g/m*3 2.13 C 9.7 km/h
499 18-01-2021 17:30:00 4.4 C 5.68 g/m*3 2.4 C 8.1 km/h
500 18-01-2021 17:35:00 4.4 C 5.68 g/m*3 2.4 C 8.1 km/h
Sensor: Nr:Datum:Temp:Abs-Feuchte:Windchill:Wind:
Aussen-T/F 501 18-01-2021 17:40:00 4.4 C 5.68 g/m*3 2.01 C 9.7 km/h
502 18-01-2021 17:45:00 4.4 C 5.68 g/m*3 2.9 C 6.4 km/h
503 18-01-2021 17:50:00 4.4 C 5.68 g/m*3 1.67 C 11.3 km/h
504 18-01-2021 17:55:00 4.5 C 5.72 g/m*3 1.79 C 11.3 km/h
505 18-01-2021 18:00:00 4.4 C 5.68 g/m*3 0.84 C 16.1 km/h
506 18-01-2021 18:05:00 4.5 C 5.72 g/m*3 1.79 C 11.3 km/h
507 18-01-2021 18:10:00 4.5 C 5.72 g/m*3 1.79 C 11.3 km/h
508 18-01-2021 18:15:00 4.6 C 5.76 g/m*3 0.65 C 19.3 km/h
509 18-01-2021 18:20:00 4.6 C 5.69 g/m*3 1.61 C 12.9 km/h
510 18-01-2021 18:25:00 4.6 C 5.69 g/m*3 1.34 C 14.5 km/h
511 18-01-2021 18:30:00 4.6 C 5.76 g/m*3 1.91 C 11.3 km/h
512 18-01-2021 18:35:00 4.6 C 5.76 g/m*3 1.09 C 16.1 km/h
513 18-01-2021 18:40:00 4.6 C 5.76 g/m*3 1.34 C 14.5 km/h
514 18-01-2021 18:45:00 4.6 C 5.76 g/m*3 1.91 C 11.3 km/h
515 18-01-2021 18:50:00 4.6 C 5.76 g/m*3 1.09 C 16.1 km/h
516 18-01-2021 18:55:00 4.6 C 5.76 g/m*3 0.45 C 20.9 km/h
517 18-01-2021 19:00:00 4.7 C 5.8 g/m*3 0.99 C 17.7 km/h
518 18-01-2021 19:05:00 4.7 C 5.8 g/m*3 1.73 C 12.9 km/h
519 18-01-2021 19:10:00 4.7 C 5.8 g/m*3 0.99 C 17.7 km/h
520 18-01-2021 19:15:00 4.7 C 5.8 g/m*3 1.46 C 14.5 km/h
521 18-01-2021 19:20:00 4.8 C 5.83 g/m*3 1.58 C 14.5 km/h
522 18-01-2021 19:25:00 4.8 C 5.83 g/m*3 0.9 C 19.3 km/h
523 18-01-2021 19:30:00 4.8 C 5.83 g/m*3 1.11 C 17.7 km/h
524 18-01-2021 19:35:00 4.8 C 5.83 g/m*3 1.11 C 17.7 km/h
525 18-01-2021 19:40:00 4.8 C 5.83 g/m*3 1.34 C 16.1 km/h
Sensor: Nr:Datum:Temp:Abs-Feuchte:Windchill:Wind:
Aussen-T/F 526 18-01-2021 19:45:00 4.8 C 5.83 g/m*3 1.34 C 16.1 km/h
527 18-01-2021 19:50:00 4.8 C 5.9 g/m*3 0.9 C 19.3 km/h
528 18-01-2021 19:55:00 4.8 C 5.9 g/m*3 0.71 C 20.9 km/h
529 18-01-2021 20:00:00 4.8 C 5.9 g/m*3 0.9 C 19.3 km/h
530 18-01-2021 20:05:00 4.8 C 5.9 g/m*3 1.58 C 14.5 km/h
531 18-01-2021 20:10:00 4.8 C 5.9 g/m*3 1.58 C 14.5 km/h
532 18-01-2021 20:15:00 4.8 C 5.9 g/m*3 1.11 C 17.7 km/h
533 18-01-2021 20:20:00 4.8 C 5.9 g/m*3 0.9 C 19.3 km/h
534 18-01-2021 20:25:00 4.8 C 5.9 g/m*3 0.35 C 24.1 km/h
535 18-01-2021 20:30:00 4.8 C 5.9 g/m*3 0.9 C 19.3 km/h
536 18-01-2021 20:35:00 4.8 C 5.9 g/m*3 1.85 C 12.9 km/h
537 18-01-2021 20:40:00 4.8 C 5.9 g/m*3 -0.12 C 29 km/h
538 18-01-2021 20:45:00 4.8 C 5.9 g/m*3 1.58 C 14.5 km/h
539 18-01-2021 20:50:00 4.8 C 5.9 g/m*3 1.85 C 12.9 km/h
540 18-01-2021 20:55:00 4.8 C 5.9 g/m*3 1.11 C 17.7 km/h
541 18-01-2021 21:00:00 4.8 C 5.9 g/m*3 1.34 C 16.1 km/h
542 18-01-2021 21:05:00 4.8 C 5.9 g/m*3 1.58 C 14.5 km/h
543 18-01-2021 21:10:00 4.8 C 5.9 g/m*3 1.11 C 17.7 km/h
544 18-01-2021 21:15:00 4.9 C 5.94 g/m*3 1.97 C 12.9 km/h
545 18-01-2021 21:20:00 4.8 C 5.9 g/m*3 2.15 C 11.3 km/h
546 18-01-2021 21:25:00 4.9 C 5.94 g/m*3 0.65 C 22.5 km/h
547 18-01-2021 21:30:00 4.9 C 5.94 g/m*3 1.97 C 12.9 km/h
548 18-01-2021 21:35:00 4.9 C 5.94 g/m*3 1.7 C 14.5 km/h
549 18-01-2021 21:40:00 4.9 C 5.94 g/m*3 1.7 C 14.5 km/h
550 18-01-2021 21:45:00 4.9 C 5.94 g/m*3 1.97 C 12.9 km/h
Sensor: Nr:Datum:Temp:Abs-Feuchte:Windchill:Wind:
Aussen-T/F 551 18-01-2021 21:50:00 4.9 C 6.01 g/m*3 1.97 C 12.9 km/h
552 18-01-2021 21:55:00 4.8 C 5.97 g/m*3 1.34 C 16.1 km/h
553 18-01-2021 22:00:00 4.8 C 5.97 g/m*3 1.58 C 14.5 km/h
554 18-01-2021 22:05:00 4.8 C 5.97 g/m*3 1.11 C 17.7 km/h
555 18-01-2021 22:10:00 4.8 C 5.97 g/m*3 1.58 C 14.5 km/h
556 18-01-2021 22:15:00 4.8 C 5.97 g/m*3 1.34 C 16.1 km/h
557 18-01-2021 22:20:00 4.8 C 5.97 g/m*3 1.58 C 14.5 km/h
558 18-01-2021 22:25:00 4.8 C 6.04 g/m*3 1.85 C 12.9 km/h
559 18-01-2021 22:30:00 4.8 C 6.04 g/m*3 1.34 C 16.1 km/h
560 18-01-2021 22:35:00 4.8 C 5.97 g/m*3 1.85 C 12.9 km/h
561 18-01-2021 22:40:00 4.8 C 5.97 g/m*3 1.34 C 16.1 km/h
562 18-01-2021 22:45:00 4.8 C 5.97 g/m*3 1.58 C 14.5 km/h
563 18-01-2021 22:50:00 4.8 C 5.97 g/m*3 1.34 C 16.1 km/h
564 18-01-2021 22:55:00 4.9 C 6.08 g/m*3 1.7 C 14.5 km/h
565 18-01-2021 23:00:00 4.9 C 6.08 g/m*3 1.97 C 12.9 km/h
566 18-01-2021 23:05:00 4.9 C 6.08 g/m*3 1.97 C 12.9 km/h
567 18-01-2021 23:10:00 4.9 C 6.08 g/m*3 2.27 C 11.3 km/h
568 18-01-2021 23:15:00 4.9 C 6.08 g/m*3 1.24 C 17.7 km/h
569 18-01-2021 23:20:00 4.9 C 6.01 g/m*3 0.83 C 20.9 km/h
570 18-01-2021 23:25:00 4.9 C 6.01 g/m*3 1.7 C 14.5 km/h
571 18-01-2021 23:30:00 5 C 6.05 g/m*3 0.61 C 24.1 km/h
572 18-01-2021 23:35:00 5.1 C 6.09 g/m*3 1.49 C 17.7 km/h
573 18-01-2021 23:40:00 5.1 C 6.09 g/m*3 1.28 C 19.3 km/h
574 18-01-2021 23:45:00 5.1 C 6.09 g/m*3 2.22 C 12.9 km/h
575 18-01-2021 23:50:00 5.1 C 6.09 g/m*3 1.71 C 16.1 km/h
Sensor: Nr:Datum:Temp:Abs-Feuchte:Windchill:Wind:
Aussen-T/F 576 18-01-2021 23:55:00 5.1 C 6.09 g/m*3 0.74 C 24.1 km/h

Legende:
   Min
   Max


Maximal/Minimal-Werte vom 17.01.2021 - 18.01.2021

Sensor Min Max Avg
Temp
(Aussen-T/F)
-1.2 °C
17-01-2021  02:15:00
5.8 °C
18-01-2021  14:20:00
2.16 °C
Abs-Feuchte
(Aussen-T/F)
4.19 g/m*3
17-01-2021  02:15:00
6.18 g/m*3
18-01-2021  13:10:00
5.26 g/m*3
Windchill
(Aussen-T/F)
-1.2 C
17-01-2021  02:15:00
3.82 C
18-01-2021  16:10:00
1.04 C

Die Daten stammen von einer Davis Vantage Pro 2 Wetter-Station und werden unter Linux mit der Software wview2wettercgi und aufbereitet. Alle Angaben erfolgen ohne Gewähr für ihre Vollständigkeit oder Richtigkeit.
Kontakt: Rainer Krienke krienke@uni-koblenz.de . Meine Webseiten an der Uni Koblenz oder privat.
Version: $Revision: 0.78 $